Regional Weather Roundup
Issued by NWS

Home | Current Version | Previous Version | Graphics & Text | Print | Product List | Glossary On
Versions: 1 2 3 4 5 6 7 8 9 10 11 12 13 14 15 16 17 18 19 20 21 22 23 24 25 26 27 28 29 30 31 32 33 34 35 36 37 38 39 40 41 42 43 44 45 46 47 48
000
ASUS45 KBOU 140207
RWRCO

WEATHER ROUNDUP FOR COLORADO
NATIONAL WEATHER SERVICE DENVER/BOULDER CO
800 PM MDT SAT SEP 13 2014

NOTE: "FAIR" INDICATES FEW OR NO CLOUDS BELOW 12000 FEET WITH NO
SIGNIFICANT WEATHER AND/OR OBSTRUCTIONS TO VISIBILITY.

COZ001>005-013-030-031-140300-
...NORTHWEST COLORADO...

CITY           SKY/WX    TMP DP  RH WIND       PRES   REMARKS
CRAIG            N/A     56  40  55 N3        30.15R
HAYDEN         PTCLDY    63  28  27 S6        30.17S
MEEKER         CLEAR     64  33  31 W3        30.16R
MOUNT WERNER   NOT AVBL
STEAMBOAT SPGS PTCLDY    61  31  31 E3        30.20S
WALDEN         MOCLDY    52  28  40 S3        30.28R
$$

COZ006>008-011-140300-
...WEST CENTRAL VALLEYS...

CITY           SKY/WX    TMP DP  RH WIND       PRES   REMARKS
GRAND JUNCTION CLEAR     66  44  45 CALM      30.06R
MONTROSE       CLEAR     67  43  41 S3        30.15S
EAGLE          CLEAR     64  34  32 CALM      30.21R
RIFLE          CLEAR     64  37  36 SE6       30.11R
DELTA          CLEAR     76  36  23 SW3       30.09S
NUCLA          CLEAR     72  32  23 SE5       30.17S
$$

COZ017>023-064>068-140300-
...SOUTHWEST COLORADO...

CITY           SKY/WX    TMP DP  RH WIND       PRES   REMARKS
DURANGO        CLEAR     68  29  23 SW7       30.20R
CORTEZ         CLEAR     63  44  50 S3        30.16R
PAGOSA SPRINGS NOT AVBL
TELLURIDE      PTCLDY    59  28  31 CALM      30.37R
WOLF CREEK PAS CLEAR     45  32  61 SW21      30.55S
$$

COZ009-010-012-014-032>034-037-058>063-140300-
...CENTRAL COLORADO...

CITY           SKY/WX    TMP DP  RH WIND       PRES   REMARKS
ASPEN          CLEAR     54  31  41 SW8       30.29R
BUENA VISTA    CLEAR     60  26  27 NW9       30.28R
COPPER MTN     CLEAR     46  14  27 W12G18    30.56R
BERTHOUD PASS  MOCLDY    39  37  93 W10       30.60R
COTTONWOOD PAS CLEAR     61  18  18 W8        30.41R
GUNNISON       CLEAR     61  25  25 NW7       30.30R
KREMMLING      PTCLDY    59  21  23 CALM      30.26R
LEADVILLE      CLEAR     49  22  34 CALM      30.42R
MONARCH PASS   CLEAR     45  21  39 W13       30.66R
SALIDA         CLEAR     65  23  20 W12       30.31R
SUNLIGHT       CLEAR     46  28  49 CALM      30.49S
WILKERSON PASS NOT AVBL
$$

COZ069>075-140300-
...SAN LUIS VALLEY/SANGRE DE CRISTO MOUNTAINS...

CITY           SKY/WX    TMP DP  RH WIND       PRES   REMARKS
ALAMOSA        MOCLDY    65  35  33 N8        30.25R
LA VETA PASS   NOT AVBL
SAGUACHE       NOT AVBL
$$

COZ035-036-038>040-140300-
...NORTHERN COLORADO FRONT RANGE...

CITY           SKY/WX    TMP DP  RH WIND       PRES   REMARKS
DENVER INTL AP PTCLDY    60  40  47 NE10      30.14R
DMNS CITY PARK   N/A     64  37  37 N3G9      30.14R
AURORA         CLEAR     60  40  47 E7        30.16R
FRONT RANGE AP NOT AVBL
ERIE MUNI ARPT CLEAR     62  40  44 N3        30.15R
BOULDER MUN AP CLEAR     61  43  51 NW3       30.17R
CENTENNIAL     PTCLDY    62  38  40 E5        30.15R
BROOMFIELD     PTCLDY    64  39  39 N6        30.18R
FORT COLLINS   CLEAR     61  39  44 E9        30.16R
LONGMONT       CLEAR     56  46  68 NW6       30.18R
$$

COZ041-046-047-076>085-087-088-140300-
...PIKES PEAK/PALMER DIVIDE AND SOUTHERN FOOTHILLS...

CITY           SKY/WX    TMP DP  RH WIND       PRES   REMARKS
COLO. SPRINGS  PTCLDY    60  36  40 SE9       30.23R
A. F. ACADEMY  CLEAR     60  35  38 S10       30.23R
ELLICOTT       NOT AVBL
FALCON         PTCLDY    53  37  55 S3        30.26R
FORT CARSON    PTCLDY    60  38  43 SE6       30.20R
LIMON          CLEAR     55  42  61 SE7       30.17R
MONUMENT HILL  CLEAR     54  37  54 S12       30.23S
TRINIDAD       CLEAR     69  50  50 S13       30.13R
$$

COZ042>045-048>051-090-091-140300-
...NORTHEAST COLORADO...

CITY           SKY/WX    TMP DP  RH WIND       PRES   REMARKS
GREELEY ARPT   CLEAR     55  41  58 E7        30.15R
AKRON          CLEAR     56  45  66 SE10      30.16R
BURLINGTON     CLEAR     55  49  80 SE9       30.15R
WRAY           CLEAR     56  47  70 E3        30.14S
STERLING       CLEAR     61  45  55 SE5       30.12R
HOLYOKE        CLEAR     54  46  76 E7        30.15R
FORT MORGAN    CLEAR     55  41  59 NE8       30.15R
$$

COZ086-089-092>099-140300-
...SOUTHEAST COLORADO...

CITY           SKY/WX    TMP DP  RH WIND       PRES   REMARKS
PUEBLO         CLEAR     63  40  42 E7        30.12R
LA JUNTA       CLEAR     62  47  57 NE9       30.08R
LAMAR          CLEAR     65  53  65 SE9       30.07R
SPRINGFIELD      N/A     60  53  77 S12       30.13R
$$



USA.gov is the U.S. government's official web portal to all federal, state and local government web resources and services.